Regional Weather Roundup
Issued by NWS

Home | Current Version | Previous Version | Graphics & Text | Print | Product List | Glossary On
Versions: 1 2 3 4 5 6 7 8 9 10 11 12 13 14 15 16 17 18 19 20 21 22 23 24 25 26 27 28 29 30 31 32 33 34 35 36 37 38 39 40 41 42 43 44 45 46 47 48 49 50
000
ASUS43 KLOT 251209
RWRIL

ILLINOIS REGIONAL WEATHER ROUNDUP
NATIONAL WEATHER SERVICE CHICAGO/ROMEOVILLE IL
700 AM CDT THU MAY 25 2017

NOTE: "FAIR" INDICATES FEW OR NO CLOUDS BELOW 12,000 FEET WITH NO
SIGNIFICANT WEATHER AND/OR OBSTRUCTIONS TO VISIBILITY.

* THESE STATIONS ARE NOT UNDER NWS QUALITY CONTROL. THEY ALSO MAY NOT
  REPORT WEATHER SUCH AS PRECIPITATION OR FOG.

ILZ001-002-007-009-015-016-024-251300-
NORTHWEST ILLINOIS

CITY           SKY/WX    TMP DP  RH WIND       PRES   REMARKS
MOLINE         CLOUDY    55  50  83 N3        29.66S
6HR MIN TEMP:  53; 6HR MAX TEMP:  57;

STERLING*      CLOUDY    54  51  90 N10       29.66R
SAVANNA*       CLOUDY    54  50  87 N8        29.66S
$$

ILZ003-004-008-010-011-017-018-251300-
NORTH CENTRAL ILLINOIS

CITY           SKY/WX    TMP DP  RH WIND       PRES   REMARKS
ROCKFORD       CLOUDY    55  51  86 N10       29.66R
6HR MIN TEMP:  55; 6HR MAX TEMP:  55;

FREEPORT*      CLOUDY    52  50  92 N12       29.67S
ROCHELLE*      CLOUDY    53  51  94 N15       29.65R
DE KALB*       CLOUDY    54  51  92 N10       29.63R
PERU*          CLOUDY    54  50  88 N13G18    29.64R
$$

ILZ005-006-012>014-019>023-251300-
NORTHEAST ILLINOIS

CITY           SKY/WX    TMP DP  RH WIND       PRES   REMARKS
CHICAGO-OHARE  CLOUDY    55  50  83 N13       29.58R
6HR MIN TEMP:  54; 6HR MAX TEMP:  56;

CHICAGO-MIDWAY CLOUDY    56  51  84 N14       29.57R
6HR MIN TEMP:  54; 6HR MAX TEMP:  56;

AURORA         CLOUDY    56  52  86 NW15      29.61R
6HR MIN TEMP:  54; 6HR MAX TEMP:  57;

LANSING*       CLOUDY    54  52  95 N10G17    29.57R
JOLIET*        MOSUNNY   56  53  90 N9        29.59R
WAUKEGAN       CLOUDY    53  51  93 N8        29.59R
6HR MIN TEMP:  51; 6HR MAX TEMP:  53;

DUPAGE AIRPORT CLOUDY    54  53  97 N15       29.60R
6HR MIN TEMP:  52; 6HR MAX TEMP:  55;

KANKAKEE*      CLOUDY    55  52  90 NW10G16   29.57R
WHEELING       CLOUDY    54  52  93 N9        29.60R
6HR MIN TEMP:  53; 6HR MAX TEMP:  55;

MORRIS*        PTSUNNY   55  52  89 NW9G17    29.59R
ROMEOVILLE*    PTSUNNY   54  54  99 N12       29.59R
NORTHERLY ISL    N/A     54  49  83 N16         N/A
$$

LMZ740>746-251300-
SOUTHERN LAKE MICHIGAN

STATION/POSITION SKY/WX   TEMP    WIND        PRES    VSBY  WAVE
                          AIR SEA DIR/SP/G                  HT/PER
                          (F)     (DEG/KT/KT) (MB)    (MI)  (FT/S)
SOUTHERN BUOY              46 45   10/ 14/ 16 1000.9          3/ 6
WILMETTE HARBOR            49 51                N/A           5/ 6
HARRISON CRIB              51     340/ 22/ 25   N/A
BURNHAM HARBOR             54     340/ 18/ 20   N/A
CALUMET HARBOR             52     330/ 12/ 18 1001.0R
BURNS HARBOR               49     340/ 18/ 22 1001.0R
MICHIGAN CITY              49     340/ 23/ 26   N/A
MICHIGAN CITY 6N           49 52  340/ 17/ 21   N/A           6/ 5
ST. JOSEPH                 54 56   30/ 16/ 21 1000.2          4/ 5
$$

ILZ025>027-034>036-040-047-049-050-058-095>099-251300-
WEST-CENTRAL ILLINOIS

CITY           SKY/WX    TMP DP  RH WIND       PRES   REMARKS
QUINCY         SUNNY     51  50  96 NW7       29.69R
GALESBURG*     MOSUNNY   51  50  98 N5        29.66R
MACOMB*        SUNNY     51  51  99 NW8       29.70R
JACKSONVILLE*  SUNNY     52  51  95 W8        29.67R
PITTSFIELD*    SUNNY     53  51  95 W5        29.70R
$$

ILZ028>032-037-038-041>044-048-051>054-059>061-251300-
CENTRAL ILLINOIS

CITY           SKY/WX    TMP DP  RH WIND       PRES   REMARKS
PONTIAC        CLOUDY    55  55  99 NW16G22   29.62R
BLOOMINGTON    CLOUDY    53  51  93 NW17      29.63R
DECATUR        CLOUDY    55  52  89 NW15      29.61R
PEORIA         CLOUDY    54  51  90 NW5       29.65R
6HR MIN TEMP:  53; 6HR MAX TEMP:  55;

LACON*         CLOUDY    54  52  92 N8        29.64R
LINCOLN*       CLOUDY    55  53  93 N5        29.64R
SPRINGFIELD    CLOUDY    55  53  93 NW7       29.66R
6HR MIN TEMP:  55; 6HR MAX TEMP:  58;

TAYLORVILLE    CLOUDY    55  52  91 NW10      29.65R
6HR MIN TEMP:  54; 6HR MAX TEMP:  56;

$$

ILZ033-039-045-046-055>057-062-063-251300-
EAST-CENTRAL ILLINOIS

CITY           SKY/WX    TMP DP  RH WIND       PRES   REMARKS
CHAMPAIGN      CLOUDY    54  51  90 NW18G28   29.59R FOG
RANTOUL*       CLOUDY    56  54  95 NW12G18   29.58R FOG
MATTOON        CLOUDY    55  54  96 NW16      29.59R
PARIS*         CLOUDY    55  54  94 NW15      29.57R
$$

ILZ079-100>102-251300-
SOUTHWEST ILLINOIS

CITY           SKY/WX    TMP DP  RH WIND       PRES   REMARKS
ALTON          SUNNY     54  52  94 NW9       29.67R
BELLEVILLE     SUNNY     56  52  88 W7        29.68R
CAHOKIA*       SUNNY     56  52  86 W7        29.68R
SPARTA*        SUNNY     53  51  92 W8        29.68R
$$

ILZ064>066-069>071-074>076-080>082-084>086-088>090-092>094-251300-
SOUTH-CENTRAL ILLINOIS

CITY           SKY/WX    TMP DP  RH WIND       PRES   REMARKS
CARBONDALE     SUNNY     56  53  90 NW9       29.67R
6HR MIN TEMP:  53; 6HR MAX TEMP:  58;

CAIRO*         SUNNY     55  52  87 W8        29.69R
EFFINGHAM*     CLOUDY    57  55  94 W13G20    29.63R
MARION           N/A     57  55  94 W6        29.67R
MT. VERNON       N/A     57  54  89 NW5       29.64R
CENTRALIA*     PTSUNNY   57  55  91 NW8       29.64R
SALEM*         CLOUDY    58  54  86 W8        29.64R
METROPOLIS*    MOSUNNY   57  53  86 W6        29.68R
$$

ILZ067-068-072-073-078-083-087-091-251300-
SOUTHEAST ILLINOIS

CITY           SKY/WX    TMP DP  RH WIND       PRES   REMARKS
LAWRENCEVILLE  CLOUDY    58  54  86 NW16      29.57R
FLORA*         CLOUDY    58  55  87 NW13      29.61R
FAIRFIELD*     CLOUDY    57  55  91 W3        29.61R
HARRISBURG*    CLOUDY    56  54  92 W8        29.65R
ROBINSON*      CLOUDY    57  54  91 NW13G20   29.57R
CARMI*         CLOUDY    57  55  92 W12       29.61R
$$

ABBREVIATIONS USED IN REMARKS
   TC - TEMPERATURE IN CELSIUS
  WCI - WIND CHILL INDEX
   HX - HEAT INDEX
  VSB - VISIBILITY
$$





USA.gov is the U.S. government's official web portal to all federal, state and local government web resources and services.